Showing default

NUSAT-28 (ALICE LEE), 52747

Orbit data source: Space-Track

NUSAT-28 (ALICE LEE), 52747 is a payload satellite owned by URUGUS S.A. (AR) in SSO that was launched on Wed, 25 May 2022 UTC via an FALCON 9 launch vehicle from the Air Force Eastern Test Range (AFETR). Payload-class satellites include a variety of spacecraft equipped with specific instruments for various scientific and technological missions. These include communications satellites like Starlink; space stations such as the ISS; scientific satellites like the Hubble; Earth observation satellites from companies like Planet Labs, Umbra, and HawkEye 360; GPS; miniature CubeSats for education and research; and military/defense satellites.

Loading next visibility...
Identifier
52747, 2022-057R
Orbit
SSO
Country
Flag of UnknownUnknown / ARGN
Related business
Manufacturer
URUGUS S.A.
Mission
Operational Commercial Imaging
Bus & Motor
NEWSAT V, Unknown motor
Mass
41.5 kg wet, 38.5 kg dry
Launch date (UTC)
2022-05-25 (4 years ago)
Launch vehicle
FALCON 9
Launch site
Air Force Eastern Test Range (AFETR)
Object type
Payload
Rocket body
Debris
Shape & HBR
Box, 1.0 m
Radar Cross Section
0.542 m², Medium (>0.1 m² and < 1m²)

Expand to show TLE details & history
Last TLE update: 7 hours ago

TLE from 7 hours ago
0 NUSAT-28 (ALICE LEE)
1 52747U 22057R   25349.91285904  .00075676  00000-0  73939-3 0  9997
2 52747  97.5027 127.6313 0004187 271.4612  88.6168 15.65926718198839
Epoch: 2025-12-15T21:54Z
TLE epoch observation values (Epoch: 2025-12-15T21:54:31.021Z)
Latitude
0.00001°
Longitude
74.19743°
Altitude
373.657 km
Speed
7.685 km/s
True Right ascension
08h 30m 31s
True Declination
0° 00' 00"
Sunlit
Object was in full shadow at epoch
Visualization orbit readout
Latitude
Unknown
Longitude
Unknown
Altitude
Unknown
Speed
Unknown
Apparent Right ascension
Unknown
Apparent Declination
Unknown
Sunlit
N/A
Visualization observer readout
Local Sidereal Time
03:07:57
Azimuth
Unknown
Elevation
Unknown
Doppler factor
Unknown
Orbital elements
Apogee altitude
370.308 km
Perigee altitude
364.66 km
Semi-major axis
6,745.621 km
Eccentricity
0.00042
Inclination
97.5027°
RAAN
127.6313°
Arg. of periapsis
271.4612°
True anomaly
88.66477°
Mean anomaly
88.6168°
Eccentric anomaly
88.64078°
Mean motion
3.91751 °/min
Orbital period
91.9 mins
BSTAR
0.00073939
Loading maneuver chart data...
Computing Atmospheric mass density...

Documentation

Showing up to 5 results
|